Location: Carrizo Plain National Monument
(35.0903°N, 119.7316°W)
Time: 18:56:41
(UTC-08:00)

Envisat - Visible Passes

Search period start: 20 January 2020 00:00
Search period end: 30 January 2020 00:00
Orbit: 764 x 766 km, 98.1° (Epoch: 20 January)

Date Brightness Start Highest point End Pass type
(mag) Time Alt. Az. Time Alt. Az. Time Alt. Az.
20 Jan 3.7 06:22:46 10° NNE 06:27:47 59° E 06:32:46 10° S visible
20 Jan 3.1 17:33:58 10° SSE 17:38:54 55° ENE 17:43:52 10° N visible
20 Jan 6.1 19:15:36 10° WSW 19:18:13 14° W 19:20:51 10° WNW visible
21 Jan 5.5 05:46:45 10° NE 05:50:53 25° E 05:54:59 10° SSE visible
21 Jan 4.8 18:36:37 10° SSW 18:41:11 33° W 18:45:46 10° NNW visible
22 Jan 3.1 17:59:16 10° S 18:04:20 81° WSW 18:09:26 10° NNW visible
23 Jan 4.3 06:11:36 10° NNE 06:16:28 45° E 06:21:18 10° S visible
23 Jan 5.8 19:03:22 10° SW 19:06:50 18° W 19:10:18 10° NW visible
24 Jan 5.9 05:35:56 10° NE 05:39:31 19° E 05:43:04 10° SE visible
24 Jan 4.3 18:25:03 10° S 18:29:51 43° W 18:34:41 10° NNW visible
25 Jan 3.2 06:36:53 10° NNE 06:41:59 84° ESE 06:47:04 10° SSW visible
25 Jan 3.0 17:48:00 10° SSE 17:53:03 79° ENE 17:58:09 10° N visible
26 Jan 4.8 06:00:31 10° NNE 06:05:09 35° E 06:09:45 10° SSE visible
26 Jan 5.5 18:51:26 10° SSW 18:55:27 24° W 18:59:30 10° NW visible
27 Jan 6.2 05:25:21 10° ENE 05:28:07 15° E 05:30:53 10° SE visible
27 Jan 3.8 18:13:34 10° S 18:18:32 57° W 18:23:32 10° NNW visible
28 Jan 3.6 06:25:38 10° NNE 06:30:42 65° E 06:35:43 10° S visible
28 Jan 6.3 19:19:00 10° WSW 19:21:09 13° W 19:23:19 10° WNW visible
29 Jan 5.3 05:49:31 10° NE 05:53:48 27° E 05:58:04 10° SSE visible
29 Jan 5.0 18:39:40 10° SSW 18:44:06 30° W 18:48:34 10° NW visible
